Wind_Gust
6 11 10 12 7 8 9 8 9 8 8 10 12 9 9 11 14 14 11 12 10 11 11 11 11 11 10 10 10 10 9 8 7 8 8 6 6 7 7 8 9 7 8 6 5 7 8 7 7 5 7 8 8 9 9 9 8 10 9 9 8 6 11 8 6 2 3 3 5 7 6 9 8 5 7 7 6 5 4 4 5 6 6 7 7
10 12 9 11 11 8 8 7 5 8 11 11 10 10 11 13 12 12 14 12 11 12 10 9 8 9 10 8 9 8 7 8 7 8 8 7 6 6 8 8 7 7 7 8 7 8 7 8 7 5 6 10 8 7 9 9 9 9 9 11 11 10 6 12 6 7 8 3 4 4 6 6 9 5 11 11 9 6 8 7 6 8 9 8 9
9 9 10 10 10 8 7 7 6 8 11 11 12 13 13 12 12 15 14 14 12 14 13 11 10 9 8 8 8 7 8 7 7 8 8 10 9 7 7 8 8 9 8 9 9 6 6 7 7 7 8 10 10 8 6 6 8 10 11 10 12 10 9 7 10 7 10 9 6 7 9 9 12 11 10 8 5 7 9 10 10 8 8 6 9
16 12 10 11 9 6 8 10 9 16 15 11 13 14 16 14 15 14 14 14 14 10 12 13 11 10 9 8 8 8 7 6 8 7 9 9 9 9 7 7 8 8 9 9 9 9 9 8 6 8 9 13 9 6 7 9 10 11 10 10 11 12 11 9 9 10 9 12 9 13 11 11 13 4 5 5 6 7 7 5 3 7 8 8 8
17 15 11 11 9 10 10 9 14 18 14 10 13 13 13 14 15 15 14 13 12 12 11 12 12 11 12 10 7 8 8 9 8 7 6 8 9 9 8 8 7 8 8 8 9 10 8 9 7 6 8 13 12 9 9 9 10 12 14 13 13 12 10 13 11 9 12 14 10 6 5 8 6 5 8 12 7 8 6 7 8 9 8 7 8
17 17 13 10 9 9 11 7 13 13 8 8 10 12 10 11 14 13 15 15 12 12 14 10 12 11 10 8 9 8 9 9 9 9 8 7 7 8 8 8 8 8 6 6 6 7 9 7 7 9 10 12 11 9 10 13 14 13 13 11 9 8 10 8 9 9 12 12 12 8 3 11 8 9 8 12 10 10 8 7 5 7 9 11 13
19 18 16 12 11 9 8 6 9 14 14 9 8 14 14 14 9 13 13 16 14 13 12 13 10 10 8 9 8 8 7 7 8 7 6 7 8 9 8 7 6 6 5 6 6 9 14 15 16 9 7 8 11 10 10 9 12 10 9 10 9 9 10 10 10 10 10 9 5 6 8 7 9 11 5 8 7 7 10 6 13 11 10 12 15
18 17 16 11 10 9 13 12 14 12 8 11 14 16 15 14 15 14 13 16 17 16 13 10 8 8 9 8 7 7 8 7 6 6 7 10 9 9 10 8 6 6 6 7 8 9 11 13 14 10 6 6 12 9 11 11 7 8 4 8 9 10 9 8 7 8 8 7 7 9 7 8 5 3 4 6 6 7 11 13 15 13 14 13 13
15 17 17 11 10 10 12 18 14 12 12 11 14 17 17 14 12 20 21 17 16 12 12 13 12 10 8 8 8 6 9 8 7 7 9 7 8 10 9 9 8 9 8 7 5 6 9 8 4 9 9 4 8 8 5 8 14 12 4 8 9 10 8 7 9 9 7 7 4 3 5 5 7 7 6 6 15 21 11 8 14 12 9 7 11
14 16 16 17 10 10 13 13 12 10 13 13 15 16 15 11 11 12 18 21 13 12 12 11 13 12 12 8 6 7 7 5 4 5 3 6 7 8 8 8 9 11 12 10 9 8 9 9 9 11 10 10 11 10 11 11 10 13 12 12 12 11 8 8 6 7 8 8 6 6 6 9 8 9 10 9 6 4 2 6 12 17 6 9 10
16 15 17 17 17 10 11 12 9 12 14 13 15 13 14 14 14 14 14 15 16 14 14 13 11 9 11 10 9 7 4 3 2 2 4 4 6 9 10 8 8 11 12 14 12 12 9 9 9 10 11 12 15 16 16 18 18 18 18 16 11 10 12 12 7 5 6 5 5 6 4 2 4 7 6 7 6 9 10 7 10 7 8 8 17
19 18 17 19 19 16 9 11 11 12 11 15 18 15 14 14 13 12 13 13 14 13 12 13 11 11 11 9 9 7 5 5 3 3 5 7 8 11 10 11 10 10 12 13 12 12 11 10 8 8 9 9 11 16 17 18 19 19 19 18 19 18 12 9 7 6 4 7 6 3 4 3 1 1 3 3 7 3 4 6 8 8 9 9 10
20 18 18 18 19 18 15 11 10 14 13 14 15 16 15 15 13 13 12 13 15 15 14 14 13 9 12 12 10 6 5 6 3 3 10 13 13 11 10 11 14 11 12 13 12 13 12 12 11 10 9 11 10 10 15 17 15 18 18 19 18 17 17 17 13 11 8 9 7 4 4 3 6 3 2 2 2 6 5 3 5 6 8 9 14
20 20 21 21 18 16 15 14 14 11 10 12 14 15 15 15 12 12 9 14 15 15 13 14 11 11 10 11 10 8 7 7 4 8 14 16 16 13 10 13 12 12 10 9 10 10 10 13 14 11 7 8 7 8 10 13 12 13 14 14 14 14 15 16 15 13 10 9 7 6 2 2 2 3 5 2 3 3 4 6 5 4 7 12 9
21 22 21 21 21 21 19 17 15 7 10 14 15 15 16 14 14 14 12 8 16 16 15 14 12 11 9 9 12 11 10 9 7 9 17 17 18 13 14 15 15 13 12 11 10 10 8 9 11 13 10 8 7 5 8 12 13 14 14 13 12 10 10 10 9 7 8 8 7 5 6 5 3 4 5 4 2 6 7 5 5 4 4 5 11
21 23 24 23 21 20 19 19 18 15 9 15 18 17 16 16 15 13 15 13 12 16 13 14 14 12 9 8 13 14 12 14 11 9 16 19 18 17 16 17 16 15 15 14 13 10 9 8 8 10 8 9 10 10 5 10 14 15 15 12 10 9 9 6 6 5 7 7 7 5 1 3 3 5 5 4 5 4 3 5 3 3 3 5 10
22 22 23 22 21 19 19 19 19 19 18 15 18 17 17 19 16 14 17 12 16 15 17 14 12 13 12 11 14 14 13 14 13 12 11 17 17 17 17 17 16 16 14 14 12 12 12 9 9 10 12 12 11 12 9 7 11 11 12 10 8 10 8 4 6 7 8 9 7 4 3 3 5 4 5 8 6 4 2 3 8 2 2 6 7
19 20 20 21 21 19 16 19 21 19 18 16 17 18 19 20 18 13 18 17 18 13 14 17 15 14 16 16 13 16 14 15 16 15 13 11 13 19 17 19 16 16 16 14 12 13 17 21 15 12 14 12 12 15 13 12 13 10 9 8 8 9 8 7 5 6 7 8 10 9 8 9 10 9 10 9 4 4 5 3 5 4 7 5 11
20 18 17 17 19 19 18 17 20 21 17 16 16 20 19 18 17 19 18 17 16 12 13 18 17 17 16 16 17 18 16 16 18 16 16 12 12 15 17 18 18 14 14 14 11 11 13 14 17 15 12 11 15 14 14 10 11 9 8 10 9 8 7 7 10 11 13 13 13 13 12 11 10 8 8 11 9 4 2 4 5 3 7 8 8
16 14 15 16 18 20 19 19 17 19 20 16 14 18 20 19 18 21 19 17 16 14 15 17 19 17 14 17 18 16 17 17 19 19 16 16 11 12 10 18 18 15 13 11 17 11 10 10 11 12 11 11 11 11 11 11 9 6 7 8 7 4 3 4 6 7 7 9 7 8 7 7 9 9 9 10 11 9 7 3 3 2 4 7 7
15 15 14 16 18 19 18 18 18 17 14 16 16 17 18 18 17 20 22 20 18 17 18 17 19 17 16 16 19 18 17 16 20 19 18 17 15 12 14 14 13 15 14 11 10 9 7 8 7 9 10 10 10 9 9 9 7 7 7 7 4 3 2 3 6 5 8 7 8 9 9 9 9 9 9 9 9 9 8 7 4 1 3 5 6
14 14 16 17 17 17 17 17 17 16 15 14 16 17 16 16 14 17 17 20 22 17 16 17 19 17 16 17 18 17 18 20 17 20 21 20 19 16 14 11 10 16 16 11 9 9 6 6 6 7 8 7 7 8 8 9 9 10 11 7 6 7 6 4 5 7 9 9 10 11 10 10 10 10 10 8 8 9 6 6 5 4 3 1 5
14 15 15 17 17 16 16 17 16 16 17 14 15 17 14 17 15 14 17 19 20 17 14 14 17 18 16 16 16 16 16 17 20 19 20 20 19 18 15 11 9 10 13 11 8 7 5 6 4 7 6 5 5 6 6 7 6 8 8 8 6 5 5 7 6 9 10 9 11 11 9 9 10 9 10 11 10 9 8 7 7 6 6 7 7
14 16 16 16 16 17 16 17 17 16 16 16 16 14 14 14 15 14 15 16 17 16 14 14 15 17 15 14 15 15 14 15 16 18 17 18 17 18 16 15 12 11 11 9 6 5 6 6 6 6 8 9 11 10 8 6 7 8 9 9 7 6 7 8 11 10 9 11 12 10 10 7 6 8 8 7 6 5 6 6 7 5 5 7 7
15 17 17 16 17 15 16 17 17 17 16 15 15 14 14 12 16 12 14 15 15 15 13 13 16 15 14 14 13 14 14 15 14 16 17 16 17 16 15 14 11 8 10 7 6 6 4 7 11 13 14 15 15 14 13 14 14 11 10 9 9 9 10 11 11 11 14 10 8 6 6 6 3 3 4 6 3 3 5 7 5 5 5 5 5
17 16 16 16 16 16 17 16 16 17 16 15 14 12 12 13 14 13 14 15 13 14 12 12 13 14 15 13 13 12 13 13 14 13 11 11 10 12 11 12 13 12 10 10 9 13 15 16 17 16 14 11 14 14 14 14 14 16 15 11 11 11 10 11 11 13 10 8 8 8 7 8 8 9 4 5 10 9 6 6 4 8 9 8 8
17 16 16 15 15 16 17 17 16 17 16 14 15 15 14 12 14 13 11 13 14 13 12 12 12 13 13 11 10 12 12 11 10 9 10 10 9 6 7 10 8 9 13 13 11 15 17 15 15 14 14 17 17 13 12 10 15 15 14 13 12 12 10 11 10 10 8 8 7 7 6 8 5 9 11 11 10 9 7 5 6 5 6 4 7
15 15 15 14 14 14 15 13 17 17 17 16 15 15 15 14 13 13 11 8 13 12 10 10 9 11 11 8 9 10 8 8 9 10 9 8 6 5 6 8 9 9 13 11 12 12 14 9 13 12 13 16 16 15 15 14 13 12 12 11 11 10 9 7 8 9 6 4 4 4 6 8 9 9 9 11 10 10 9 7 5 6 8 6 8
14 14 13 14 14 13 14 13 13 14 13 16 17 15 13 12 12 12 10 7 6 7 12 11 8 6 7 6 8 10 6 7 3 2 3 4 5 5 8 9 9 11 7 8 13 11 13 16 15 15 15 14 14 14 12 13 13 11 11 10 9 10 10 11 11 8 7 8 10 8 8 8 10 8 8 11 12 11 11 10 10 9 8 10 9
12 13 14 12 10 11 11 11 10 10 9 10 14 17 15 17 13 13 12 14 18 16 9 9 6 7 10 7 4 7 8 3 3 6 7 8 10 10 9 8 8 10 10 9 12 18 15 15 13 12 12 13 13 11 10 10 10 11 9 6 8 9 9 8 9 7 7 10 8 11 9 8 10 10 11 10 10 11 10 9 9 8 10 9 9
8 8 10 11 10 9 7 8 9 9 9 8 9 12 16 20 19 19 16 16 16 16 15 14 13 10 10 10 7 7 4 5 9 10 12 12 12 12 12 11 9 7 3 14 18 15 13 15 11 11 11 11 11 9 8 8 7 8 8 7 8 10 9 10 9 7 9 9 10 9 10 10 9 9 9 7 7 8 10 9 9 10 9 8 9
4 4 4 4 8 6 7 6 6 7 8 9 8 7 12 17 17 16 17 17 16 16 14 13 12 11 10 8 7 9 11 13 14 14 13 13 13 14 14 14 12 12 9 17 18 12 10 13 11 10 9 11 8 6 6 7 5 5 4 9 10 8 9 8 6 8 9 11 11 10 7 7 6 6 6 7 7 9 9 10 10 9 8 8 7
5 5 6 8 8 5 6 5 4 4 6 6 7 7 9 12 17 14 14 12 15 16 15 14 14 13 14 15 14 13 11 12 15 14 15 15 16 16 17 16 13 9 17 19 15 12 10 10 11 7 8 9 7 7 7 7 7 7 8 7 8 8 8 6 4 11 8 5 5 6 5 7 6 7 7 8 9 9 8 10 8 6 7 9 8
4 4 3 3 2 5 4 3 3 1 3 6 5 8 8 9 11 12 13 10 13 13 12 15 14 14 15 15 16 16 14 13 12 12 13 14 14 15 15 17 17 16 15 13 13 12 9 10 9 8 7 7 5 5 5 6 7 8 9 9 8 8 7 4 9 6 5 7 9 6 6 7 7 9 9 8 6 6 9 8 8 9 8 5 5
5 5 5 4 3 2 3 5 2 3 6 7 6 6 8 6 7 10 11 12 11 11 8 12 12 11 13 11 13 15 14 13 12 11 10 10 12 13 13 16 15 13 15 12 11 10 10 9 8 6 6 6 4 6 8 8 9 9 8 7 6 6 6 8 6 6 8 8 9 8 6 7 6 6 6 8 9 10 8 8 8 6 5 8 7
6 7 7 8 8 7 6 4 2 4 7 9 8 7 6 6 7 7 6 8 9 10 8 8 6 7 12 12 13 14 15 13 13 12 11 10 6 8 14 11 12 10 9 8 9 8 8 7 7 7 7 8 8 9 8 8 6 5 4 7 6 7 7 7 8 8 6 8 6 5 7 8 7 6 3 4 5 4 4 5 5 4 4 5 3
6 8 7 8 7 7 6 7 6 6 6 9 11 9 7 6 6 7 6 6 7 5 7 6 7 9 9 9 11 13 13 14 13 14 13 13 13 15 12 10 10 8 8 7 7 8 10 9 8 8 8 9 7 6 6 7 5 6 7 7 6 9 7 5 6 6 8 8 5 5 4 4 4 4 4 6 6 6 6 5 5 6 5 5 4
7 5 4 5 6 6 7 7 5 5 9 9 8 9 8 7 7 5 6 5 4 6 7 5 5 8 8 4 6 7 10 10 13 12 11 11 13 12 10 8 8 9 8 8 8 9 8 7 6 7 5 6 7 7 8 7 7 8 8 8 9 6 7 7 7 6 5 7 7 7 6 8 7 7 7 8 5 4 6 6 5 8 6 7 7
5 7 6 7 5 6 7 5 6 6 8 8 9 9 8 8 7 6 5 4 4 5 5 6 7 6 4 3 5 4 9 10 9 8 8 8 8 8 8 8 8 7 7 7 7 7 6 7 5 5 6 8 8 6 8 8 7 8 7 9 8 9 10 9 8 7 7 8 7 7 7 8 8 7 6 9 8 5 3 4 5 4 5 6 6
8 7 6 6 5 5 8 4 4 6 3 8 7 8 8 8 8 7 6 5 4 4 5 8 7 7 3 2 5 9 10 8 7 7 7 7 7 7 7 7 7 7 6 6 7 7 8 6 5 8 7 6 8 8 7 7 8 6 7 9 9 9 7 6 7 8 8 6 7 8 10 9 7 5 9 10 8 4 5 7 4 4 2 2 3
4 5 5 3 2 3 5 7 3 2 2 5 8 8 9 9 8 7 7 6 6 5 6 7 8 5 3 3 5 7 11 9 7 6 6 6 4 6 6 4 5 6 6 6 6 7 7 7 7 8 7 7 6 8 6 8 6 8 9 6 8 6 5 8 7 8 8 8 9 9 9 8 8 9 10 8 6 6 4 4 5 5 5 3 3
2 7 5 6 6 2 1 2 5 2 4 3 3 7 8 7 7 7 7 6 5 6 6 6 5 4 3 6 7 10 11 8 7 7 4 4 5 3 2 2 2 4 5 5 6 7 7 8 7 7 8 6 7 6 7 7 7 8 7 8 8 7 9 8 7 6 7 6 6 7 5 6 6 6 4 6 8 8 7 7 4 6 8 9 7
2 4 2 5 6 4 4 2 3 5 6 5 2 2 2 3 5 5 6 4 4 5 6 6 4 4 5 5 8 8 9 8 5 7 6 5 4 3 3 4 4 5 4 4 4 6 7 8 8 8 7 5 5 4 6 7 8 8 7 7 7 8 7 5 7 8 7 7 6 5 5 7 8 6 7 7 5 6 5 4 5 5 5 4 5
4 2 3 3 3 3 2 1 3 4 5 5 4 3 5 4 3 4 6 6 5 4 4 4 5 7 7 5 5 8 8 7 6 7 6 5 5 6 5 4 5 5 5 3 3 5 8 9 9 6 5 5 5 5 5 3 3 8 8 8 7 6 5 6 6 5 5 6 4 5 8 6 6 5 7 7 5 8 7 6 6 7 5 5 5
4 2 2 3 5 4 3 3 4 4 3 4 4 3 3 7 7 5 4 6 7 7 8 9 8 7 5 8 8 8 8 8 6 6 5 5 5 4 3 3 4 5 4 3 2 5 7 8 7 6 6 4 5 6 6 5 5 6 4 7 8 8 4 3 2 2 1 2 3 3 5 7 7 8 5 3 3 3 4 3 3 4 5 5 6
4 2 1 2 1 1 1 3 3 5 3 2 2 2 3 6 6 6 7 7 8 9 8 9 9 8 9 8 8 7 8 7 7 5 5 4 4 3 3 4 3 4 4 3 3 5 5 7 8 8 7 5 5 6 5 4 4 4 4 5 4 3 1 2 2 2 2 2 2 2 2 3 2 2 3 2 2 2 2 1 1 1 1 3 3
4 3 1 3 5 2 1 1 3 4 4 5 4 2 3 7 7 7 6 7 8 8 4 7 6 8 8 8 8 8 7 7 7 6 6 6 5 4 3 3 4 4 3 3 3 4 6 6 6 8 7 5 6 5 4 4 4 4 5 4 4 3 3 2 2 1 1 1 1 2 2 3 1 1 4 2 1 2 1 2 2 3 3 3 3
4 3 1 4 5 5 3 1 2 2 2 3 6 5 5 4 4 7 7 9 8 3 3 6 8 8 7 8 7 7 7 5 5 5 4 5 5 4 4 4 5 5 4 3 2 3 5 6 7 7 8 6 6 5 3 3 3 4 4 5 4 4 5 4 3 3 1 1 1 2 2 2 1 1 2 2 2 2 2 3 3 3 4 3 5
8 7 8 10 10 11 10 9 6 5 6 4 3 7 5 5 8 7 8 6 7 4 6 8 5 6 7 7 7 7 6 6 7 6 5 5 5 5 4 4 4 3 3 3 3 5 5 6 5 5 7 4 5 5 4 3 3 3 4 4 5 7 6 6 3 3 4 2 1 2 2 2 2 1 1 1 1 1 1 1 1 3 3 3 2
8 8 8 5 4 3 4 7 6 6 5 4 4 5 8 7 8 6 5 4 2 6 6 5 7 7 8 8 8 9 9 10 9 8 8 7 7 5 4 5 5 4 4 5 4 4 4 4 4 5 5 4 4 3 3 3 2 3 3 4 6 7 7 7 5 4 3 1 1 2 3 4 3 2 2 1 1 1 2 2 3 4 3 3 4
6 6 5 3 3 2 2 3 8 8 6 5 5 5 6 8 9 8 7 6 5 7 6 6 3 4 8 10 11 12 11 9 8 8 8 9 8 7 6 6 6 4 3 3 4 4 4 5 5 5 5 5 3 3 2 2 2 2 3 5 6 6 7 6 4 5 4 2 1 3 3 3 3 3 2 3 2 3 4 3 3 3 3 2 2
Wind_Speed
1 6 4 6 5 4 4 4 5 4 4 6 7 6 5 6 7 7 6 7 5 5 7 6 5 5 5 5 6 6 5 5 5 5 5 4 4 4 4 5 5 4 4 3 3 4 5 5 4 3 4 5 5 5 6 6 5 6 5 5 5 4 6 4 3 1 1 1 2 2 3 5 3 3 4 3 3 2 3 3 3 4 3 4 5
4 5 4 6 7 4 5 4 3 0 2 3 6 6 7 8 6 6 7 6 6 6 7 5 4 5 5 4 5 5 4 5 4 5 5 4 4 4 5 5 4 4 4 4 4 4 4 5 4 3 4 5 4 5 5 6 5 5 5 6 6 6 4 6 3 4 4 1 1 2 3 3 4 3 6 5 5 3 5 4 3 3 4 5 5
6 4 5 5 5 5 3 3 2 4 7 7 6 7 8 8 7 8 7 6 6 8 8 7 7 6 5 5 5 4 5 4 4 5 5 6 6 4 4 5 5 5 5 5 5 3 4 4 4 4 4 5 4 5 4 4 5 5 5 5 7 6 5 4 4 3 6 4 3 4 4 4 6 5 5 4 2 2 3 4 4 4 3 3 5
9 8 6 5 5 4 4 4 5 9 8 6 7 6 5 6 8 8 8 7 7 5 7 8 7 6 6 5 5 5 4 4 5 4 6 6 6 6 5 4 5 5 6 5 5 4 4 4 3 5 5 6 4 4 4 6 6 6 5 6 6 7 6 5 5 5 4 6 5 6 5 6 5 1 3 3 3 4 4 3 2 4 4 4 4
10 9 7 6 5 5 5 3 7 7 5 3 5 7 6 7 8 9 8 8 7 6 6 7 7 7 7 6 5 5 5 5 5 4 4 5 6 6 5 5 5 4 4 5 5 5 4 4 3 4 5 6 4 4 3 4 5 6 7 7 7 7 5 6 6 4 6 7 4 2 3 2 1 2 4 6 4 4 3 4 4 5 4 4 4
10 10 8 6 5 5 6 4 6 5 3 3 4 1 2 1 4 8 9 9 7 7 8 6 7 7 6 6 5 5 5 5 6 6 5 4 4 5 5 5 5 4 4 4 4 3 3 1 2 5 6 7 5 5 5 6 6 5 7 7 6 5 6 5 5 5 6 6 6 3 2 5 3 3 4 6 6 5 4 4 3 4 5 6 7
10 10 10 7 6 2 3 4 6 9 8 5 4 6 8 9 5 4 6 9 8 8 7 8 6 7 5 6 5 5 5 5 5 4 4 4 5 5 5 4 4 4 3 3 4 6 7 8 7 4 3 4 6 6 6 6 7 7 6 6 5 6 6 6 6 6 5 4 2 2 4 3 3 5 2 5 4 4 5 3 6 6 5 6 8
9 8 9 7 6 4 8 8 7 5 4 5 6 8 9 8 8 2 4 8 9 9 8 6 5 4 5 5 4 4 5 5 4 4 4 5 5 5 6 5 4 4 4 4 5 5 6 6 8 6 0 2 3 6 6 6 4 4 2 5 6 6 6 5 4 5 4 4 4 5 3 3 2 0 1 4 3 3 5 6 8 7 7 5 6
9 8 9 7 5 5 7 10 4 5 4 5 7 9 7 5 6 5 5 5 8 7 6 7 6 6 4 5 5 4 5 5 4 4 5 4 5 6 6 5 5 6 5 4 2 4 5 3 2 3 1 1 5 6 4 6 8 6 2 4 5 6 5 4 5 6 3 4 2 2 3 2 3 3 3 3 8 8 2 4 6 6 5 4 5
8 8 8 10 7 6 7 8 6 4 5 6 8 8 8 6 7 5 7 5 4 7 7 6 7 7 6 5 4 4 3 3 2 4 3 4 5 5 5 5 6 6 7 6 4 5 4 4 5 8 8 7 7 8 8 10 9 7 5 5 6 6 5 5 4 5 5 4 2 3 3 3 1 2 3 2 2 2 0 3 5 7 3 5 6
9 9 10 9 10 6 6 7 5 7 8 7 7 6 7 7 8 9 7 5 6 8 7 6 6 5 7 6 6 3 2 1 0 2 4 4 4 5 6 5 5 7 7 7 7 7 5 5 5 7 7 8 10 13 14 15 15 15 14 12 7 6 7 7 4 4 3 3 3 3 2 1 2 4 4 3 2 3 4 3 4 2 2 3 7
10 10 9 9 9 10 5 7 6 7 7 7 8 7 7 5 7 7 7 7 5 6 6 6 6 5 5 5 5 3 1 2 1 1 3 6 6 6 6 7 6 6 7 7 7 7 7 5 4 4 5 5 7 10 13 15 16 16 16 15 15 14 10 6 4 4 3 4 4 2 3 2 1 1 1 1 2 2 2 3 4 4 4 4 3
12 9 9 9 11 8 9 4 6 6 6 7 7 9 8 7 7 7 6 4 3 9 6 7 7 5 6 7 4 2 2 4 2 2 6 9 11 9 6 6 8 7 7 7 7 7 6 6 6 5 5 9 6 7 9 11 13 15 15 16 15 14 14 15 12 7 5 5 5 3 2 1 3 1 1 1 1 0 1 2 3 4 4 5 7
12 12 12 12 11 9 9 8 3 7 4 7 8 8 8 6 6 6 5 3 4 9 6 7 6 6 5 7 5 3 3 6 3 7 9 12 13 10 6 8 7 7 6 6 5 6 6 7 8 6 4 5 4 4 6 8 7 8 8 8 8 10 13 13 13 11 7 5 4 3 0 1 1 1 0 0 0 1 1 3 2 2 4 6 4
12 12 12 12 12 12 11 9 9 2 5 5 7 8 8 7 8 5 6 3 5 9 8 8 6 6 5 5 7 5 4 7 6 8 10 14 15 11 8 8 8 8 7 7 6 6 5 5 5 7 5 5 3 3 5 7 8 8 8 8 7 6 6 5 5 4 5 5 4 3 4 3 2 2 2 1 1 3 4 3 2 1 1 2 3
12 13 14 14 12 12 11 11 10 10 5 6 7 8 8 7 8 6 6 7 4 8 8 7 7 7 5 5 7 8 6 10 10 7 11 16 16 10 9 10 9 9 9 9 8 6 5 5 5 6 5 5 6 8 5 4 9 9 9 7 6 5 5 3 4 4 4 4 4 3 1 1 2 1 2 2 3 3 2 2 1 0 0 2 4
13 13 14 13 13 11 11 11 11 11 9 7 8 9 9 10 8 6 9 6 8 5 9 7 6 7 8 6 8 8 7 10 9 10 10 15 14 9 10 9 9 9 8 7 7 7 7 6 4 6 6 7 7 10 8 4 6 7 7 6 5 6 5 2 4 6 7 8 6 4 2 1 1 1 4 6 4 2 0 2 3 0 1 3 3
12 12 12 12 12 11 10 10 12 11 10 9 7 9 10 9 9 6 9 7 10 6 7 9 9 8 9 9 6 8 7 10 11 11 11 10 11 11 9 10 9 8 8 7 7 8 10 16 10 6 7 7 9 13 10 8 8 6 6 5 5 6 5 3 1 3 6 7 9 7 7 8 9 8 9 5 1 1 2 1 2 2 3 2 3
12 11 10 10 12 12 11 10 9 12 10 10 7 8 10 10 8 9 9 9 9 6 6 9 9 9 9 9 12 11 8 10 13 12 13 11 8 8 9 10 10 7 7 7 6 6 7 9 12 10 8 8 12 12 12 8 7 6 5 6 6 5 3 4 5 5 6 6 7 6 7 8 6 5 5 10 8 4 0 2 2 1 2 3 3
10 9 9 10 10 11 11 11 10 8 12 9 8 8 9 10 10 12 11 9 9 8 8 9 11 9 8 9 9 9 10 9 11 14 13 13 10 7 6 10 10 8 6 6 8 7 5 6 7 10 10 10 9 9 9 9 6 4 4 5 4 2 1 2 3 3 4 5 4 4 4 4 5 5 6 6 6 5 4 2 1 0 1 2 2
9 9 8 10 11 11 11 11 11 10 7 9 7 8 9 10 9 11 12 11 10 9 10 9 11 10 9 9 10 10 8 9 12 15 15 14 13 9 8 8 7 8 7 6 6 5 4 4 3 7 9 8 8 8 8 8 6 5 4 4 2 1 1 2 3 4 5 5 5 6 5 5 5 5 5 5 5 5 5 4 2 0 1 1 2
9 9 10 10 10 10 10 10 10 9 9 7 9 9 9 9 8 9 9 11 13 10 8 9 10 9 9 9 10 10 11 14 10 15 17 16 15 14 9 7 6 9 9 6 5 5 4 2 3 5 7 6 6 6 7 8 8 6 6 6 4 6 3 2 2 4 5 5 6 6 6 5 5 5 5 4 4 5 4 4 4 3 2 0 2
9 9 9 10 10 10 9 10 10 9 9 8 7 9 8 10 9 8 8 10 12 10 8 8 9 10 9 8 8 9 9 10 15 13 16 16 16 15 13 8 8 6 7 6 4 4 2 1 2 5 5 4 4 6 6 6 6 6 7 7 5 5 4 3 4 5 5 5 6 6 5 5 5 5 5 6 5 5 5 4 4 4 4 4 4
8 10 10 10 10 10 10 10 9 9 9 8 9 8 8 8 8 7 7 9 9 9 8 7 8 9 8 7 7 7 7 7 11 14 12 15 14 14 13 13 11 7 6 5 3 2 3 3 3 5 7 9 10 9 8 6 5 8 8 8 6 5 4 6 7 5 5 6 7 6 5 4 3 5 5 4 4 3 3 3 4 3 3 5 4
9 10 10 10 10 9 9 10 10 10 9 9 8 8 7 6 8 7 8 8 8 8 7 7 8 8 7 6 5 5 5 6 7 11 14 13 14 13 13 12 9 7 6 4 3 3 4 7 10 12 12 13 13 12 11 12 12 9 8 8 7 6 6 5 5 6 7 6 5 4 4 3 1 1 2 2 1 2 2 4 3 3 3 3 4
10 10 9 9 9 9 10 10 10 10 10 8 8 7 7 6 8 7 8 8 7 7 6 6 6 6 6 5 6 6 7 7 8 7 7 8 9 10 10 9 9 10 8 7 8 12 13 14 14 13 12 9 8 8 8 8 12 13 13 10 7 6 5 6 6 7 6 4 4 5 3 3 3 4 2 2 5 5 3 3 2 5 5 4 5
10 9 9 9 9 9 11 9 8 9 10 8 8 8 7 6 7 7 5 7 7 7 7 6 6 6 7 6 5 6 7 6 6 5 6 6 5 4 3 5 5 7 8 7 8 9 11 10 10 11 11 14 13 11 9 8 9 9 8 7 6 6 6 6 5 5 4 4 4 4 4 4 3 4 6 6 6 5 4 2 3 3 4 2 4
9 9 9 8 8 8 8 11 11 9 10 9 7 8 8 7 7 6 6 4 7 7 5 5 5 5 5 4 5 5 4 4 4 4 5 5 3 3 3 4 4 5 7 6 7 7 7 8 9 7 7 9 8 8 7 7 7 7 7 6 6 5 5 5 5 5 3 2 2 2 3 5 5 5 4 6 6 6 5 4 3 3 4 1 3
8 9 8 8 8 8 8 8 8 7 7 9 9 8 7 6 6 6 6 4 4 4 6 5 4 3 4 4 4 5 3 3 2 2 1 2 2 1 4 4 5 6 5 7 7 6 7 8 8 8 8 8 7 7 7 7 7 6 6 6 6 6 6 6 6 5 4 5 6 5 5 5 5 5 5 6 7 6 6 6 6 5 5 6 5
7 8 7 7 6 6 6 6 6 6 5 5 5 8 12 14 9 6 6 11 15 13 8 4 4 4 6 3 2 2 4 1 2 4 6 7 8 8 7 6 6 7 8 8 7 8 7 8 6 6 6 6 7 6 6 6 6 6 5 5 5 5 5 5 5 4 4 5 5 6 5 5 6 6 6 6 6 6 6 6 5 4 6 5 5
5 5 6 6 6 5 4 5 5 5 5 4 4 6 8 11 15 15 12 12 13 14 13 11 9 5 5 5 4 6 4 5 8 9 10 10 10 10 10 9 8 6 2 7 9 7 7 8 6 6 6 6 6 5 5 5 5 5 4 5 5 5 5 6 5 4 6 6 6 5 5 6 6 5 6 5 4 5 6 5 5 5 5 3 4
3 3 3 3 5 4 4 3 3 4 4 5 5 4 6 9 9 12 13 13 13 13 12 11 10 9 8 5 5 5 8 10 11 10 10 11 11 11 12 12 10 10 7 13 9 7 6 7 6 5 5 6 5 4 4 4 3 3 3 5 5 4 5 5 3 4 5 6 6 6 5 4 4 4 4 4 5 5 5 6 5 5 5 4 4
4 2 2 4 5 4 3 3 3 3 3 3 4 4 4 6 8 7 7 10 12 13 12 11 11 10 11 11 10 10 9 9 11 11 12 12 13 13 14 13 11 8 13 11 8 7 6 6 6 4 5 5 3 4 3 4 5 4 4 4 4 4 4 2 3 6 5 4 4 4 3 2 2 4 5 5 5 4 5 5 4 3 4 5 5
2 3 2 2 2 2 3 1 2 1 2 3 3 3 3 5 5 6 6 5 7 9 11 12 11 11 12 12 12 11 10 10 10 10 11 11 12 13 12 10 14 13 11 7 7 6 5 6 5 5 4 4 3 3 3 4 3 4 5 5 5 5 4 3 6 4 4 3 5 2 3 4 4 6 6 4 3 4 6 5 5 5 5 3 3
3 4 5 3 1 1 2 2 1 2 3 3 3 3 3 2 4 5 6 6 6 6 4 6 9 9 7 7 10 11 10 10 9 9 9 9 10 11 10 9 8 7 8 6 6 6 6 6 5 4 4 4 2 2 4 4 5 5 5 5 4 4 3 5 4 3 5 4 5 5 4 4 4 4 4 5 6 6 5 5 4 3 3 5 5
4 4 5 5 5 3 2 1 1 1 4 5 4 4 3 3 4 4 4 5 5 5 5 5 3 6 10 10 10 11 12 11 11 10 8 7 3 6 7 6 6 6 5 5 5 5 5 4 5 3 3 3 3 5 5 5 4 3 2 4 4 4 5 4 5 5 4 5 4 3 4 4 3 3 1 2 3 2 2 2 3 3 2 3 2
4 5 5 5 4 4 4 3 4 3 4 5 5 4 4 4 3 4 4 4 4 3 4 3 4 5 6 5 7 10 11 11 11 11 11 10 10 8 6 6 6 5 5 5 4 4 5 3 3 4 5 5 5 4 3 4 3 3 4 4 3 5 5 4 4 4 5 4 3 3 3 2 2 2 2 3 3 3 3 3 3 4 3 3 3
3 4 3 3 4 3 4 4 4 4 5 6 4 4 4 4 4 3 3 3 3 4 4 3 3 4 5 2 4 4 5 7 10 9 9 9 7 6 5 5 5 5 5 4 4 5 5 4 5 5 3 4 4 3 4 4 3 5 5 5 5 4 5 4 5 4 4 4 4 4 2 3 2 2 3 5 3 3 4 4 3 4 4 5 4
2 5 4 5 4 4 4 4 4 3 4 3 5 5 5 5 4 3 2 2 3 2 3 3 4 3 3 2 2 2 5 5 5 5 5 5 5 4 5 5 5 5 4 4 4 4 4 4 3 3 3 5 5 4 5 5 4 5 4 6 6 6 6 6 5 4 4 3 3 2 3 3 3 4 4 6 5 3 2 3 3 3 3 4 3
4 4 3 3 3 3 5 2 2 2 2 4 3 3 4 4 5 4 3 3 3 3 3 4 4 3 2 1 3 5 5 4 3 4 5 5 4 4 4 4 4 4 4 4 3 3 4 3 2 4 4 3 5 5 5 4 5 4 5 6 6 6 4 4 3 3 2 2 3 3 5 5 5 3 6 6 4 3 4 4 3 2 2 1 2
2 3 3 2 2 2 3 4 2 1 0 2 4 5 6 5 5 3 3 3 3 3 3 4 4 3 2 2 4 5 6 5 4 3 4 4 3 4 3 3 4 3 3 3 3 4 3 4 4 4 4 4 4 5 4 5 4 5 6 4 4 4 3 3 3 2 2 3 4 4 4 4 5 6 6 4 3 4 3 2 4 4 3 2 2
2 2 3 4 2 1 0 1 3 2 1 2 3 3 4 4 3 4 3 3 3 3 3 2 2 2 2 5 6 8 7 5 4 4 2 2 2 2 1 1 1 3 3 3 3 4 4 5 4 4 5 4 4 4 4 4 4 5 4 4 4 3 5 3 2 2 3 3 4 4 4 4 4 4 3 4 5 5 5 5 2 3 5 5 4
1 1 2 3 4 3 1 1 2 3 2 2 1 2 2 2 3 3 3 3 3 3 3 3 2 0 2 4 5 6 5 5 4 4 4 3 3 2 2 2 2 2 3 2 2 4 4 5 5 5 4 3 2 3 4 4 4 5 4 4 4 4 3 2 3 5 3 4 4 3 4 4 5 4 5 5 3 4 4 3 4 4 3 2 3
1 1 2 2 2 2 1 1 2 2 2 2 1 2 3 2 2 3 3 4 3 2 2 2 2 1 2 2 3 3 5 3 4 4 4 3 3 4 3 2 3 3 2 2 2 3 5 5 5 4 3 3 2 2 3 1 2 5 5 4 3 3 2 3 3 3 3 3 3 3 5 4 4 4 4 5 3 5 5 4 4 4 3 3 3
1 1 1 2 3 2 2 2 2 2 2 1 2 0 2 4 3 3 3 3 3 4 4 5 5 3 2 2 3 4 4 3 3 3 3 3 3 3 2 2 2 3 3 2 2 3 4 5 5 4 4 2 2 3 3 2 2 2 2 5 5 4 3 2 1 0 0 2 2 2 3 5 5 5 4 2 2 2 3 2 2 3 2 3 4
1 0 1 1 1 1 1 2 2 2 2 1 0 1 1 2 3 4 4 4 5 5 5 5 5 5 5 4 4 4 5 4 4 3 4 3 3 2 1 2 2 2 2 2 2 3 3 5 5 5 4 3 2 2 2 2 2 2 2 2 3 2 0 1 1 1 1 1 1 1 2 2 2 2 2 1 1 1 1 1 1 0 1 1 2
2 0 0 2 3 2 1 1 2 2 2 2 2 1 1 3 4 3 3 5 5 3 3 4 4 5 5 5 5 5 5 5 5 4 4 4 4 3 2 2 2 2 2 2 2 3 4 4 4 5 5 4 3 3 2 2 2 1 2 2 2 2 1 1 1 1 1 1 0 1 1 1 1 1 2 1 0 0 0 1 1 2 2 1 2
2 1 1 3 4 4 2 0 0 1 1 1 3 3 3 2 3 4 4 4 4 1 2 3 4 5 5 5 4 5 4 4 4 3 3 3 3 3 2 3 4 4 3 2 1 2 3 4 5 4 5 4 4 3 2 2 2 2 2 2 3 2 3 4 2 2 1 1 0 1 1 1 0 0 1 1 1 1 1 2 2 2 2 2 3
5 4 5 4 3 4 4 6 3 3 3 2 1 3 3 3 4 4 3 3 3 2 4 5 4 4 3 4 4 4 4 3 4 4 4 3 3 3 3 2 2 2 2 2 2 3 4 4 3 4 4 3 3 4 2 2 2 2 3 3 4 6 6 5 3 2 3 1 1 1 1 1 1 1 1 0 0 0 0 0 1 1 1 1 1
4 3 2 1 0 0 1 2 3 3 3 3 3 3 2 2 4 4 3 3 2 4 4 3 4 4 4 4 5 6 5 5 5 5 5 4 4 3 2 2 2 2 2 3 3 3 3 3 3 3 3 3 2 2 2 2 1 2 2 2 5 6 6 6 4 4 2 0 0 1 2 2 2 2 1 1 0 0 0 1 1 2 1 1 1
3 2 1 1 2 1 1 2 3 4 4 2 2 3 3 3 4 4 5 4 4 4 4 4 1 3 4 5 5 6 6 6 5 5 5 5 5 4 3 3 3 3 2 2 3 3 3 3 4 4 4 3 2 2 2 2 1 1 3 5 6 6 6 5 3 5 4 2 1 2 2 1 1 1 1 1 1 1 3 1 1 1 1 1 1
Wind_Direction
209 235 259 272 264 208 188 182 189 179 171 180 176 176 164 164 171 177 161 187 170 187 159 161 163 159 157 161 160 163 161 160 160 152 157 155 153 155 161 166 169 178 163 173 175 164 167 173 185 178 154 152 161 161 167 168 154 160 157 148 155 162 150 149 129 107 359 354 127 158 154 140 168 191 185 210 228 219 205 210 196 183 197 201 204
304 286 239 225 239 224 192 185 165 36 288 236 178 174 168 170 172 163 181 186 168 174 155 155 156 156 155 162 162 160 160 157 156 151 155 153 160 166 166 168 171 171 169 176 181 184 169 175 183 145 134 119 135 156 166 165 157 156 167 166 185 190 187 145 156 138 189 254 72 66 132 179 177 190 187 195 219 208 208 218 216 206 206 213 213
326 297 284 260 246 245 243 227 142 167 201 219 195 181 171 158 161 186 184 176 183 167 159 156 160 158 157 165 163 161 159 158 160 159 165 164 167 172 173 168 170 171 177 184 181 169 171 185 174 138 143 113 120 132 129 142 161 175 185 182 193 197 193 171 138 157 167 215 181 165 179 187 193 192 196 197 204 234 245 223 214 216 230 217 231
332 328 316 282 250 249 234 205 206 222 208 196 192 186 176 174 178 182 172 171 175 167 157 160 159 158 160 167 170 165 159 160 163 172 170 167 164 168 170 176 175 178 179 178 176 170 184 187 175 151 144 130 140 125 148 150 185 194 195 197 193 198 197 186 185 144 172 168 223 191 191 174 226 185 164 176 202 213 225 246 232 230 235 230 227
323 311 296 277 254 227 238 182 220 227 239 246 203 181 182 180 180 175 164 167 165 159 165 161 159 159 163 168 172 168 171 166 166 173 182 174 169 168 172 176 179 181 182 175 174 176 175 194 164 150 147 146 154 156 181 174 195 197 200 193 199 194 191 195 190 159 149 191 192 183 155 194 169 179 172 179 213 216 232 230 226 234 244 243 240
317 306 292 279 265 241 227 213 218 243 273 311 293 297 110 168 191 166 163 165 165 164 165 172 162 163 161 163 168 174 167 166 170 179 186 183 174 176 174 178 180 175 171 170 176 175 165 135 144 152 152 148 179 176 183 190 197 205 205 194 180 171 189 201 184 173 173 187 164 153 174 175 195 211 188 185 184 209 231 249 263 236 230 254 244
314 309 294 274 278 256 235 231 207 202 209 195 156 147 165 164 194 231 170 168 162 164 171 169 166 160 158 147 154 154 154 162 167 172 176 174 175 177 181 181 167 165 157 141 102 86 87 83 52 348 130 171 171 176 166 174 185 192 190 166 154 153 167 179 172 169 167 148 146 200 174 208 180 202 219 175 185 182 203 243 266 243 224 227 257
313 313 305 265 252 232 247 227 218 210 184 158 159 168 173 170 168 177 201 176 167 168 171 162 139 129 131 130 128 132 130 135 142 149 162 164 164 176 178 177 158 120 108 120 143 145 124 127 143 175 173 257 208 165 158 150 147 125 128 132 136 137 149 146 139 146 147 159 172 186 183 166 219 263 97 128 175 262 215 195 227 248 243 235 236
324 333 333 300 251 225 230 253 219 211 182 168 167 168 175 164 126 110 346 269 173 159 134 132 125 114 111 123 126 121 132 141 138 145 159 154 152 157 165 161 143 119 105 96 75 82 105 118 92 130 175 217 253 157 184 161 145 117 90 111 122 127 125 133 143 139 138 153 160 90 128 176 201 158 154 163 195 215 194 170 241 255 254 284 275
330 335 345 336 293 232 223 235 234 182 193 194 175 164 157 157 134 120 125 305 286 127 134 137 137 138 132 114 106 110 119 132 126 151 161 146 149 140 138 145 134 125 118 104 81 75 75 81 82 86 90 84 65 59 67 66 61 89 126 122 122 111 115 115 116 132 138 144 171 140 154 223 256 236 246 277 351 12 292 165 223 259 320 290 280
346 349 352 342 331 261 224 229 193 189 189 189 166 150 155 161 150 139 143 148 241 142 139 134 131 134 133 132 122 114 120 96 225 198 159 176 143 138 141 128 117 124 124 120 115 104 88 79 84 91 94 87 80 80 74 73 76 77 76 74 74 111 118 97 100 138 122 125 148 117 134 196 240 195 204 242 305 260 244 204 235 318 313 318 295
353 348 349 349 349 339 271 210 201 194 182 177 169 148 142 148 131 138 144 143 231 130 124 127 120 119 111 106 106 115 110 16 3 255 193 169 153 129 122 117 118 119 119 117 118 113 107 96 85 89 85 91 100 89 82 83 85 81 76 70 69 64 65 107 136 84 96 103 91 119 124 130 143 170 64 84 20 20 307 273 258 250 255 234 239
358 354 351 354 355 339 338 265 188 205 176 172 154 151 149 150 137 127 140 125 199 125 129 117 117 113 117 111 96 65 69 4 63 147 160 138 123 115 108 117 118 119 120 125 126 124 120 104 88 63 59 75 86 98 104 94 85 85 83 78 67 69 71 65 62 92 128 91 103 51 53 107 61 46 105 329 189 73 191 185 208 204 204 221 238
4 1 360 3 354 347 341 345 249 178 163 155 144 143 147 140 107 99 91 121 167 111 106 104 99 100 100 109 101 68 44 355 74 136 147 122 111 103 102 98 94 93 94 97 103 106 113 122 115 95 75 73 73 83 97 98 94 86 76 73 76 64 62 62 66 63 68 109 116 104 207 131 115 249 316 146 68 272 281 286 227 186 197 219 232
9 4 6 2 5 2 358 0 360 351 136 134 122 119 116 103 109 110 105 128 153 114 117 107 95 91 91 98 99 69 27 13 86 132 133 112 103 98 94 91 87 81 73 71 73 84 89 90 100 113 108 90 50 73 108 107 99 92 87 81 78 76 73 67 66 72 74 68 79 68 20 12 356 314 315 356 246 219 202 213 211 197 244 276 296
9 10 10 7 3 6 9 8 13 5 14 96 101 99 95 96 98 86 90 88 48 94 84 88 87 83 69 76 89 70 36 29 75 99 119 108 99 94 91 88 87 78 69 63 59 50 47 59 83 78 72 62 36 50 55 123 114 113 110 114 106 89 73 85 96 79 94 99 99 102 96 286 236 253 268 262 269 276 306 313 347 144 232 304 267
10 10 11 6 2 3 19 21 20 23 17 39 75 80 84 83 69 87 83 64 78 44 92 76 75 77 72 61 75 72 50 24 57 82 89 106 102 100 97 92 82 73 68 66 64 62 59 50 47 75 73 58 32 56 44 83 91 98 107 107 105 95 88 104 135 103 101 111 104 119 142 38 52 139 172 218 232 242 36 4 308 350 25 312 301
4 10 11 9 7 4 9 27 38 25 34 22 53 79 84 77 79 66 82 82 80 49 68 81 67 61 66 64 56 78 60 31 41 57 69 73 106 111 107 101 90 88 85 70 70 68 55 51 48 43 55 57 41 49 43 73 76 74 70 75 62 54 29 12 118 79 81 92 59 63 54 38 32 29 40 59 182 206 132 261 255 36 337 276 271
359 2 7 12 13 10 12 12 41 51 26 42 12 71 78 84 82 75 70 69 63 60 52 77 75 62 57 66 61 64 60 39 35 48 58 69 88 103 106 103 98 93 94 83 62 64 70 61 52 44 35 30 46 44 36 52 81 75 88 84 74 57 3 350 25 34 31 37 27 26 25 19 22 26 31 33 38 46 31 260 348 44 295 301 296
348 350 7 21 22 18 13 20 12 49 69 36 39 40 73 80 82 85 73 67 69 54 52 58 68 61 51 53 56 51 58 48 35 44 52 51 59 88 86 104 107 100 83 90 85 52 37 57 59 54 38 25 38 48 49 49 70 67 74 91 107 119 289 21 27 54 61 61 48 47 40 17 24 26 26 30 24 18 21 9 26 134 260 290 320
355 357 4 22 27 23 19 18 21 11 39 79 62 56 64 68 74 87 92 80 66 59 60 57 63 58 51 48 57 49 45 56 41 42 47 49 49 70 88 94 110 110 108 90 87 90 58 41 51 43 40 27 23 39 48 52 54 69 69 88 87 152 108 73 34 47 70 66 64 55 41 26 28 26 24 26 20 6 5 8 24 106 178 222 280
360 3 8 21 24 24 21 18 22 20 20 42 70 66 60 64 62 76 86 93 90 75 65 72 67 59 50 47 47 50 42 45 53 40 42 47 47 51 75 69 88 112 99 98 94 90 78 39 47 32 39 33 32 38 43 46 45 64 66 90 91 87 97 94 78 64 63 68 68 58 41 31 24 19 11 18 15 4 358 357 8 26 55 145 208
11 10 13 20 22 21 23 25 25 24 24 20 52 73 74 79 70 56 70 83 86 85 71 66 72 66 53 44 38 40 38 40 46 49 42 45 50 52 56 65 64 78 105 111 102 94 93 4 54 53 68 78 76 72 73 59 56 64 78 85 76 86 80 66 72 79 77 73 71 65 45 30 22 12 9 360 354 358 4 1 1 5 21 31 44
20 24 18 18 23 21 21 22 29 28 26 29 37 51 63 78 81 81 78 77 79 78 70 66 65 63 59 46 39 36 32 39 44 50 51 41 42 49 49 48 55 73 75 90 65 83 70 45 33 46 72 74 72 67 60 53 63 65 79 83 85 87 89 62 48 72 78 65 59 50 32 12 14 17 4 335 313 317 331 8 6 4 19 29 32
16 27 23 19 21 22 27 24 25 27 22 30 41 38 46 54 78 63 73 71 74 77 65 69 71 67 59 50 43 42 31 35 39 37 42 46 44 46 52 54 42 51 71 58 62 59 66 73 78 82 84 84 81 77 66 62 70 78 76 74 78 55 65 78 81 76 66 60 60 51 31 2 357 307 299 298 296 2 4 349 357 7 3 31 37
20 16 21 21 21 26 29 26 25 28 27 26 33 32 45 51 71 76 78 80 72 70 72 71 81 88 81 55 43 35 32 34 35 31 31 34 38 38 47 57 68 77 91 89 87 83 82 81 78 77 72 74 75 69 70 66 68 67 64 61 63 66 72 80 69 70 75 66 61 43 9 349 1 337 337 25 53 24 354 358 27 19 21 27 33
24 23 20 18 17 26 39 28 24 25 25 23 34 32 27 41 63 61 70 89 86 90 86 78 74 68 70 58 48 42 38 32 23 26 26 37 31 17 33 59 74 86 83 83 80 78 74 75 84 85 86 76 74 74 71 62 59 55 53 53 57 58 58 61 77 87 78 67 50 26 6 343 333 14 17 23 29 9 3 355 66 22 18 25 86
30 25 24 26 21 16 28 33 35 30 26 25 21 28 31 35 41 45 30 35 100 93 82 82 79 89 97 84 74 62 55 40 24 19 20 22 18 22 57 76 78 97 96 87 86 82 83 75 67 60 67 66 62 59 56 57 59 58 54 51 51 51 59 75 68 60 47 50 47 25 20 15 32 10 11 33 23 8 358 17 43 29 9 16 61
35 34 30 31 29 24 22 26 38 34 30 37 42 37 22 20 41 54 36 12 24 95 117 95 82 65 69 70 94 105 73 58 14 335 312 352 352 68 92 88 94 85 85 104 99 80 75 66 64 60 60 71 65 61 54 58 51 46 49 42 38 42 39 41 52 34 12 35 43 41 33 30 30 20 28 35 21 10 1 27 26 39 18 49 74
32 32 33 36 36 35 35 28 24 35 29 23 50 63 54 50 37 52 49 40 57 58 64 81 88 110 95 45 357 95 117 121 329 48 72 77 75 78 83 82 85 97 89 83 92 83 73 76 63 73 72 76 76 71 66 66 64 55 39 31 36 42 43 45 46 34 38 53 46 48 32 40 37 27 36 32 12 19 16 40 29 35 60 46 52
33 22 28 35 31 52 56 37 28 31 24 28 27 60 65 44 39 44 57 64 64 59 59 64 66 61 103 110 68 58 70 72 81 82 76 73 70 67 65 65 66 72 97 92 52 69 82 82 73 69 74 77 81 81 78 78 81 87 65 51 43 39 36 44 22 33 46 52 47 48 44 50 45 34 47 28 33 16 22 22 41 39 57 63 64
46 358 2 17 46 49 40 61 53 38 31 33 31 39 71 85 60 34 44 57 59 63 62 55 50 51 52 79 109 70 78 91 91 87 85 79 73 69 62 60 60 68 74 92 82 65 72 91 88 81 85 84 85 87 85 92 69 62 58 59 43 30 43 42 0 55 55 52 49 43 44 50 54 52 46 34 47 41 27 25 22 28 22 31 36
30 29 17 359 346 12 63 65 30 71 66 46 42 42 64 82 91 82 41 48 60 59 52 52 58 64 75 75 83 101 108 101 96 92 90 86 80 74 66 55 45 48 71 66 96 84 77 84 91 88 86 97 95 90 71 59 58 57 63 75 60 29 51 31 42 58 55 69 76 67 68 69 68 66 52 42 47 39 28 30 11 37 40 34 8
5 350 355 354 12 347 336 13 110 95 86 73 70 70 65 85 103 105 100 77 51 45 43 42 48 67 69 82 90 90 87 85 82 82 83 87 87 80 79 69 59 46 72 98 87 97 87 88 81 85 80 79 69 73 70 64 67 81 74 69 67 56 41 30 59 60 70 69 76 64 59 53 44 55 44 41 37 44 33 19 23 29 20 27 17
27 10 359 358 21 331 320 332 296 147 143 117 96 104 95 77 101 106 111 105 91 72 48 30 28 41 72 78 85 86 83 77 74 75 73 78 84 88 75 65 56 40 47 53 74 81 88 82 85 70 80 81 70 90 85 73 71 71 81 77 69 73 65 62 69 71 70 62 55 44 46 51 39 46 57 45 31 27 12 13 10 21 22 9 16
31 23 5 9 9 26 30 2 355 94 134 135 134 118 115 103 92 83 67 71 86 92 70 47 49 42 59 64 72 77 77 73 69 63 58 52 44 76 81 81 74 64 68 53 70 72 80 87 87 86 88 91 81 65 63 71 77 88 98 104 90 79 71 61 54 58 54 62 52 36 41 39 31 30 40 73 68 58 34 19 9 10 36 31 32
54 30 16 11 13 13 13 29 40 49 92 123 127 122 113 97 89 95 93 99 98 94 96 101 89 65 48 44 65 73 73 77 70 63 57 58 63 75 94 96 101 87 76 74 74 80 76 66 86 80 70 79 78 95 100 104 114 104 89 83 87 73 62 70 61 60 53 46 27 28 42 27 9 21 68 50 15 36 32 23 22 26 38 27 37
94 74 23 15 33 25 34 23 20 58 98 119 129 136 134 122 120 114 120 126 131 122 117 113 106 115 110 78 44 78 72 59 57 47 36 40 46 62 73 81 82 88 87 74 70 79 71 50 53 79 86 104 111 119 110 100 91 86 82 71 61 59 56 51 42 42 42 41 23 7 12 19 21 33 54 68 55 25 19 26 23 20 10 29 40
65 94 50 51 73 59 18 18 24 40 66 101 144 147 141 129 120 123 129 134 117 106 119 131 130 131 145 140 74 56 72 50 63 65 53 46 49 59 72 71 74 72 75 73 67 70 79 78 77 93 101 102 104 97 99 94 83 79 79 77 63 48 43 36 36 29 39 20 3 10 35 38 36 43 57 62 38 23 23 44 44 44 44 27 8
356 49 66 32 32 81 88 44 8 52 97 124 139 140 135 150 156 160 162 139 131 139 147 142 160 173 178 94 110 100 93 92 87 87 79 64 62 59 73 78 78 89 91 92 95 106 99 97 102 96 89 85 88 87 83 91 89 89 77 74 80 66 47 51 50 43 22 347 28 25 39 29 19 37 54 48 35 25 42 41 42 56 55 30 346
347 29 42 55 354 12 105 106 59 5 128 148 154 169 179 170 164 150 145 141 144 152 166 177 180 183 155 133 124 124 128 133 118 99 100 100 85 81 81 97 114 110 119 112 104 94 98 96 82 84 81 79 80 84 80 82 86 80 83 85 80 83 69 55 46 37 15 40 38 39 35 37 34 45 39 5 18 49 38 50 31 19 11 22 9
14 47 12 346 356 48 67 98 133 127 100 121 153 173 172 163 147 150 148 152 157 158 168 207 216 192 149 134 137 131 117 128 127 127 126 126 130 126 143 133 106 123 122 113 107 100 87 76 65 69 76 72 84 86 85 81 89 98 95 85 80 73 64 40 31 37 36 40 45 45 42 42 53 61 52 26 37 30 35 28 20 3 23 11 1
41 82 349 3 12 349 326 186 163 114 107 115 138 126 118 123 144 144 141 141 150 157 167 193 228 308 93 103 129 120 112 130 142 145 152 164 164 167 158 146 130 115 116 108 81 89 90 84 72 60 70 73 82 107 117 136 131 114 107 96 94 85 78 56 44 34 28 36 33 34 50 48 46 46 43 38 26 48 45 30 14 15 24 4 356
87 359 10 8 338 23 43 68 74 86 135 122 131 149 144 128 121 127 143 158 165 168 188 204 202 192 117 99 103 101 119 133 141 154 158 161 162 158 159 153 125 103 86 77 67 82 91 92 89 78 67 62 69 78 90 104 131 125 126 120 106 87 72 54 47 25 29 32 26 39 50 56 48 44 47 36 35 51 30 32 30 16 17 4 351
104 45 359 358 353 33 36 53 69 65 38 78 76 40 170 158 170 169 169 181 195 195 206 195 184 170 137 159 153 148 154 157 159 150 159 168 169 175 170 155 133 122 102 81 69 85 96 103 110 103 89 67 67 82 78 76 78 104 133 123 107 87 75 49 359 295 141 75 48 42 45 57 42 38 33 20 41 58 40 14 16 16 13 4 7
120 125 340 331 326 315 12 51 45 58 56 359 93 116 210 192 180 187 196 203 199 199 204 200 187 171 176 183 168 158 162 158 172 174 160 163 162 176 187 157 132 122 130 127 100 104 118 130 128 126 125 125 104 89 79 79 73 75 71 84 100 123 190 269 274 37 59 83 93 108 89 68 41 24 11 13 357 38 61 324 313 293 306 303 308
101 117 306 327 326 323 21 51 40 21 11 1 326 310 218 208 204 200 211 224 222 194 141 181 171 188 184 175 186 171 167 162 171 176 180 174 174 166 165 159 136 134 128 108 112 119 123 127 137 137 140 145 133 116 101 84 74 66 62 63 57 33 13 355 3 32 25 14 137 136 124 113 82 351 359 15 19 341 310 309 299 315 311 304 307
92 101 13 355 8 21 9 28 234 283 317 313 299 294 290 265 220 214 216 230 238 202 115 184 195 199 182 191 182 175 165 170 175 176 180 182 180 170 170 170 163 158 139 115 112 134 133 140 144 144 145 145 135 127 114 87 69 55 47 34 31 18 0 2 11 4 359 38 134 150 142 121 97 26 340 9 345 339 23 334 321 323 317 318 313
61 59 52 40 36 26 16 347 311 278 257 223 230 282 282 270 249 243 242 243 240 218 159 199 196 184 202 170 166 171 164 166 178 181 190 197 182 186 179 177 166 156 143 156 162 150 146 144 140 139 136 133 132 130 120 96 70 49 36 22 11 6 4 1 10 356 352 21 73 101 107 111 106 58 5 2 309 289 274 280 291 304 331 340 332
86 96 111 118 125 202 71 22 344 295 259 215 217 242 273 276 280 270 264 257 253 270 254 201 180 184 176 163 166 178 179 185 193 192 192 193 191 172 167 174 186 193 184 174 169 152 138 130 125 122 121 123 120 111 104 90 67 43 25 2 356 359 356 354 348 346 347 310 203 156 139 124 113 95 85 70 16 357 349 350 345 338 359 31 20
123 141 185 256 279 322 38 55 25 344 334 307 254 238 250 267 274 278 274 257 238 243 248 253 197 163 189 187 180 176 185 193 198 192 189 189 182 171 170 177 196 198 197 170 153 144 139 134 130 128 127 126 122 115 95 84 57 35 9 360 351 344 339 342 338 329 327 295 178 161 147 123 102 77 32 23 40 47 14 348 351 6 1 20 3